Location: Complexul Astronomic Baia Mare
(47.6577°N, 23.5639°E)
Time: 18:32:29
(UTC+03:00)

ISS - Pass Details

Date: 24 May 2017
Orbit: 402 x 408 km, 51.6° (Epoch: 22 May)

Event Time Altitude Azimuth Distance (km) Brightness Sun altitude
Rises 04:35:05 0° 292° (WNW) 2,329 -0.2 -9.1°
Reaches altitude 10° 04:37:13 10° 285° (WNW) 1,464 -1.3 -8.8°
Maximum altitude 04:40:21 42° 213° (SSW) 585 -3.5 -8.5°
Drops below altitude 10° 04:43:27 10° 141° (SE) 1,453 -1.1 -8.1°
Sets 04:45:35 0° 134° (SE) 2,308 0.1 -7.8°
